Preview of NWS' New Version of Forecast
This preview is not operational and should not be used for support decisions.
Latest weather observations around

Westfield, Barnes Municipal Airport (KBAF)

Using English Units (Switch to International System of Units)
Date/ Time (EDT) Wind (mph) Vis. (mi) Weather Sky Cond. Temp (°F) Rel. Humidity Wind Chill (°F) Heat Index (°F) Pressure Precip. (in)
Air Dwpt 6 hour Altimeter (inHg) Sea level (inHg) 1 hr 3 hr 6 hr
Max Min
Jul 17 14:02 S 14 10 Mostly Cloudy SCT044 BKN060 94 69     45%   99 29.87        
Jul 17 13:53 SSW 15 10 Partly Cloudy SCT044 SCT060 93 70     47%   99 29.87 29.85      
Jul 17 13:41 SSW 8 10 Partly Cloudy SCT047 92 69     47%   97 29.87        
Jul 17 12:53 SSE 8 10 Partly Cloudy FEW050 SCT060 91 71     52%   98 29.9 29.88      
Jul 17 11:53 S 8 10 Mostly Clear FEW110 87 70     57%   92 29.91 29.9      
Jul 17 10:53 S 7 10 Clear CLR 85 70     61%   89 29.93 29.92      
Jul 17 09:53 3 10 Mostly Clear FEW110 82 69     65%   85 29.95 29.94      
Jul 17 08:53 S 5 10 Mostly Cloudy BKN110 77 68     74%   78 29.95 29.94      
Jul 17 07:53 S 6 10 Mostly Clear FEW095 77 68     74%   78 29.95 29.93      
Jul 17 06:53 Calm 10 Cloudy OVC100 75 67     76%   76 29.95 29.94      
Jul 17 05:53 S 5 10 Mostly Cloudy SCT070 BKN120 72 66     82%   73 29.94 29.93      
Jul 17 04:53 S 3 10 Cloudy BKN080 OVC110 73 66     79%   74 29.94 29.93      
Jul 17 03:53 Calm 10 Cloudy SCT080 OVC095 73 66     79%   74 29.94 29.92      
Jul 17 02:53 Calm 10 Clear CLR 74 66     76%   75 29.95 29.93      
Jul 17 01:53 Calm 10 Clear   76 66     71%   77 29.95 29.94      
Jul 17 00:53 S 8 10 Clear CLR 77 66     69%   78 29.96 29.94      
Jul 16 23:53 S 8 10 Clear CLR 77 66     69%   78 29.96 29.95      
Jul 16 22:53 S 7 10 Clear CLR 78 66     67%   79 29.96 29.96      
Jul 16 21:53 S 6 10 Clear CLR 79 66     65%   80 29.98 29.97      
Jul 16 18:53 SSW 9 10 Clear CLR 90 63     41%   91 29.95 29.94      
Jul 16 17:53 SSW 10 10 Clear CLR 90 61     38%   90 29.95 29.94      
Jul 16 16:53 SSW 7 10 Mostly Cloudy BKN070 92 60     35%   92 29.97 29.96      
Jul 16 15:53 SSW 8 10 Partly Cloudy SCT065 91 60     36%   91 29.98 29.97      
Jul 16 14:53 7 10 Clear CLR 90 59     35%   89 30 29.98      
Jul 16 13:53 SW 9 10 Clear CLR 89 59     36%   88 30.01 30.01      
Jul 16 12:53 SSW 11 10 Clear CLR 86 59     40%   85 30.03 30.02      
Jul 16 11:53 SSW 8 10 Clear CLR 84 61     46%   84 30.04 30.03      
Jul 16 10:53 7 10 Clear CLR 80 61     52%   81 30.05 30.05      
Jul 16 09:53 SE 5 10 Clear CLR 74 60     62%   74 30.07 30.06      
Jul 16 08:53 Calm 10 Clear CLR 72 60     66%   72 30.09 30.08      
Jul 16 07:53 NNE 3 10 Clear CLR 66 59     78%     30.09 30.08      
Jul 16 06:53 Calm 10 Clear CLR 61 58     90%     30.09 30.08      
Jul 16 05:53 Calm 10 Clear CLR 57 55     93%     30.07 30.06      
Jul 16 04:53 Calm 10 Clear CLR 57 55     93%     30.06 30.06      
Jul 16 03:53 Calm 10 Clear CLR 60 57     90%     30.05 30.05      
Jul 16 02:53 Calm 10 Clear CLR 59 57     93%     30.06 30.06      
Jul 16 01:53 Calm 10 Clear CLR 59 57     93%     30.06 30.06      
Jul 16 00:53 Calm 10 Clear   61 58     90%     30.06 30.05      
Jul 15 23:53 Calm 10 Clear CLR 62 58     86%     30.05 30.04      
Jul 15 22:53 Calm 10 Clear CLR 64 58     81%     30.05 30.04      
Jul 15 21:53 Calm 10 Clear CLR 68 58     70%     30.04 30.03      
Jul 15 20:53 Calm 10 Clear CLR 69 57     65%     30.02 30.02      
Jul 15 19:53 N 6 10 Clear CLR 78 55     45%   78 30.02 30.01      
Jul 15 18:53 NNW 8 10 Clear CLR 81 53     38%   80 30.02 30.01      
Jul 15 17:53 NNW 14 10 Clear CLR 83 53     36%   82 30 30      
Jul 15 16:53 WNW 11 10 Clear CLR 84 51     32%   82 30 29.99      
Jul 15 15:53 NNW 11 10 Clear CLR 85 51     31%   83 30 29.99      
Jul 15 14:53 WNW 13 10 Clear CLR 85 52     32%   83 30 29.99      
Jul 15 13:53 WNW 13 10 Clear CLR 85 50     30%   83 30.01 30      
Jul 15 12:53 NW 13 10 Clear CLR 83 52     34%   82 30.03 30.02      
Jul 15 11:53 3 10 Mostly Clear FEW044 79 55     44%   79 30.05 30.04      
Jul 15 10:53 6 10 Mostly Clear FEW042 79 55     44%   79 30.05 30.04      
Jul 15 09:53 6 10 Clear CLR 75 56     52%   75 30.06 30.05      
Jul 15 08:53 W 7 10 Mostly Clear FEW034 73 58     59%   73 30.06 30.05      
Jul 15 07:53 SE 3 10 Clear CLR 69 59     70%     30.05 30.04      
Jul 15 06:53 Calm 10 Clear CLR 63 58     84%     30.05 30.04      
Jul 15 05:53 Calm 10 Clear CLR 60 56     86%     30.03 30.03      
Jul 15 04:53 WNW 7 10 Clear CLR 66 56     70%     30.03 30.01      
Jul 15 03:53 WNW 8 10 Clear CLR 67 56     68%     30.01 30      
Jul 15 02:53 Calm 10 Clear CLR 65 57     76%     30.01 30      
Jul 15 01:53 NNW 8 10 Clear CLR 70 57     63%     30 29.99      
Jul 15 00:53 NW 9 10 Clear CLR 71 58     63%   71 29.99 29.98      
Jul 14 23:53 NW 15 10 Clear CLR 73 58     59%   73 29.99 29.98      
Jul 14 22:53 NW 14 10 Clear CLR 74 57     56%   74 29.98 29.97      
Jul 14 21:53 NNW 15 10 Clear CLR 77 57     50%   77 29.97 29.96      
Jul 14 20:53 NW 7 10 Clear CLR 78 57     48%   78 29.95 29.94      
Jul 14 19:53 NW 6 10 Clear CLR 81 57     44%   81 29.93 29.91      
Jul 14 18:53 WNW 8 10 Clear CLR 84 59     43%   84 29.9 29.89      
Jul 14 17:53 NW 11 10 Clear CLR 86 58     39%   85 29.89 29.88      
Jul 14 16:53 W 15 10 Partly Cloudy SCT060 87 59     39%   86 29.88 29.87      
Jul 14 15:53 W 13 10 Clear CLR 88 56     34%   86 29.88 29.87      
Jul 14 14:53 WNW 16 10 Clear CLR 90 56     32%   88 29.87 29.86      
Jul 14 13:53 WNW 13 10 Clear CLR 89 59     36%   88 29.88 29.87      
Jul 14 12:53 NW 13 10 Clear CLR 89 60     38%   89 29.89 29.88      
Jul 14 11:53 WNW 14 10 Partly Cloudy SCT049 SCT060 85 61     45%   85 29.9 29.89      
Jul 14 10:53 WNW 11 10 Clear CLR 86 63     46%   87 29.89 29.88      
Jul 14 09:53 7 10 Clear CLR 84 65     53%   86 29.89 29.88      
Jul 14 08:53 Calm 10 Clear CLR 79 64     60%   79 29.9 29.89      
Jul 14 07:53 SSW 3 10 Clear CLR 74 66     76%   75 29.9 29.89      
Jul 14 06:53 Calm 10 Clear CLR 68 65     90%     29.9 29.89      
Jul 14 05:53 WNW 3 10 Clear CLR 66 63     90%     29.88 29.87      
Jul 14 04:53 SSW 3 10 Clear CLR 65 63     93%     29.88 29.87      
Jul 14 03:53 Calm 10 Mostly Cloudy BKN120 67 64     90%     29.87 29.86      
Jul 14 02:53 Calm 10 Clear CLR 66 63     90%     29.86 29.85      
Jul 14 01:53 Calm 10 Clear CLR 67 64     90%     29.87 29.86      
Jul 14 00:53 Calm 10 Clear CLR 68 64     87%     29.87 29.86      
Jul 13 23:53 Calm 10 Mostly Clear FEW100 FEW120 70 65     84%     29.88 29.87      
Jul 13 22:53 S 3 10 Mostly Cloudy BKN100 69 64     84%     29.89 29.88      
Jul 13 21:53 Calm 10 Clear CLR 72 64     76%   72 29.89 29.88      
Jul 13 20:53 S 3 10 Clear CLR 74 64     71%   74 29.87 29.86      
Jul 13 19:53 SW 6 10 Clear CLR 82 62     51%   83 29.87 29.85      
Jul 13 18:53 SSW 8 10 Clear CLR 84 61     46%   84 29.86 29.85      
Jul 13 17:53 WSW 8 10 Clear CLR 85 61     45%   85 29.86 29.85      
Jul 13 16:53 SW 7 10 Clear CLR 86 61     43%   86 29.87 29.86      
Jul 13 15:53 W 9 10 Clear CLR 87 60     40%   87 29.88 29.87      
Jul 13 14:53 W 7 10 Mostly Clear FEW050 86 60     42%   86 29.88 29.87      
Jul 13 13:53 SW 9 10 Partly Cloudy SCT050 85 61     45%   85 29.89 29.88      
Jul 13 12:53 NW 6 10 Partly Cloudy SCT049 85 61     45%   85 29.9 29.89      
Jul 13 11:53 NNW 5 10 Clear CLR 82 61     49%   83 29.91 29.91      
Jul 13 10:53 NNW 6 10 Clear CLR 81 61     51%   82 29.92 29.91      
Jul 13 10:19 NNW 6 10 Clear CLR 79 60     52%   79 29.92        
Jul 13 09:53 NW 9 10 Clear CLR 79 60     52%   79 29.92 29.91      
Jul 13 08:53 3 10 Clear CLR 75 59     57%   75 29.92 29.91      
Jul 13 07:53 W 7 10 Clear CLR 72 59     64%   72 29.91 29.91      
Jul 13 06:53 N 5 10 Clear CLR 70 59     68%     29.89 29.88      
Jul 13 05:53 NNW 7 10 Clear CLR 68 59     73%     29.88 29.87      
Jul 13 03:53 NNW 6 10 Partly Cloudy SCT070 70 60     71%     29.85 29.84      
Jul 13 02:53 NNW 6 10 Mostly Clear FEW075 70 61     73%     29.84 29.83      
Jul 13 01:53 NW 7 10 Clear   72 62     71%   72 29.83 29.82      
Jul 13 00:53 NW 6 10 Cloudy OVC075 72 63     73%   72 29.83 29.82      
Jul 12 23:53 WNW 7 10 Mostly Cloudy BKN075 73 63     71%   73 29.82 29.81      
Jul 12 22:53 NW 9 10 Cloudy OVC070 74 63     69%   74 29.81 29.8      
Jul 12 21:53 3 10 Cloudy OVC055 74 63     69%   74 29.79 29.78      
Jul 12 20:53 WNW 6 10 Partly Cloudy SCT050 74 62     66%   74 29.77 29.75      
Jul 12 19:53 NW 7 10 Mostly Clear FEW055 76 61     60%   76 29.76 29.75      
Jul 12 18:53 WNW 11 10 Partly Cloudy SCT047 79 59     50%   79 29.74 29.73      
Jul 12 17:53 NW 14 10 Clear CLR 83 60     46%   83 29.72 29.71      
Jul 12 16:53 NW 14 10 Mostly Clear FEW050 84 61     46%   84 29.7 29.69      
Jul 12 15:53 WNW 20 10 Clear and Windy CLR 86 62     45%   87 29.69 29.68      
Jul 12 14:53 WNW 13 10 Clear CLR 86 64     48%   87 29.7 29.68      
Jul 12 13:53 WNW 16 10 Partly Cloudy SCT055 86 66     51%   88 29.7 29.69      
Jul 12 12:55 WNW 17 10 Mostly Cloudy BKN033 BKN055 87 67     51%   90 29.69        
Jul 12 12:53 NW 20 10 Clear and Windy CLR 87 68     53%   91 29.69 29.68      
Jul 12 11:53 WNW 11 10 Mostly Cloudy BKN040 BKN050 84 67     57%   87 29.69 29.68      
Jul 12 10:53 WNW 9 10 Mostly Clear FEW030 FEW035 84 67     57%   87 29.7 29.69      
Jul 12 10:23 NW 7 10 Mostly Cloudy SCT026 BKN032 83 69     63%   87 29.7        
Jul 12 09:53 W 5 10 Mostly Cloudy BKN021 81 70     69%   84 29.7 29.69      
Jul 12 09:35 NNW 6 10 Mostly Cloudy BKN018 79 70     74%   82 29.7        
Jul 12 08:53 Calm 10 Mostly Clear FEW009 76 70     82%   77 29.7 29.69      
Jul 12 08:22 Calm 10 Mostly Cloudy SCT008 BKN034 BKN041 74 69     85%   75 29.71        
Jul 12 07:53 Calm 10 Mostly Cloudy BKN006 74 70     87%   75 29.71 29.7     0
Jul 12 07:50 N 3 10 Mostly Cloudy BKN005 73 70     89%   75 29.71        
Jul 12 07:26 Calm 10 Partly Cloudy SCT005 SCT060 73 70     90%   74 29.7        
Jul 12 07:12 Calm 10 Mostly Cloudy SCT030 BKN060 73 70     90%   74 29.7        
Jul 12 06:53 N 3 10 Cloudy BKN006 BKN011 OVC030 72 70     93%   73 29.71 29.7 0    
Jul 12 06:33 NE 5 9 Cloudy BKN006 BKN011 OVC030 71 69     93%   72 29.71   0    
Jul 12 06:19 N 6 2.5 Heavy Rain and Fog/Mist OVC006 71 69     93%   72 29.7   0    
Jul 12 06:05 N 7 8 Cloudy OVC004 71 69     93%   72 29.7        
Jul 12 05:53 N 6 9 Cloudy OVC005 71 69     93%   72 29.7 29.69      
Jul 12 05:28 NW 5 10 Cloudy BKN007 OVC015 72 70     93%   73 29.69        
Jul 12 04:53 Calm 10 Cloudy OVC010 71 69     93%   72 29.68 29.67      
Jul 12 04:43 Calm 10 Cloudy BKN010 OVC028 71 69     93%   72 29.69        
Jul 12 04:35 Calm 10 Cloudy SCT008 OVC028 72 69     91%   73 29.69        
Jul 12 04:04 Calm 10 Cloudy BKN024 OVC036 71 69     93%   72 29.7        
Jul 12 03:53 Calm 8 Cloudy FEW008 SCT024 OVC036 71 69     93%   72 29.71 29.7      
Jul 12 03:45 Calm 9 Cloudy SCT007 SCT018 OVC036 71 69     93%   72 29.71        
Jul 12 02:53 Calm 10 Cloudy OVC005 72 69     91%   73 29.74 29.73      
Jul 12 01:53 SSE 3 10 Cloudy OVC006 71 69     93%   72 29.75 29.74 0   0
Jul 12 00:53 SSE 3 10 Light Rain OVC008 71 69     93%   72 29.78 29.77 0    
Jul 12 00:29 S 5 10 Light Rain FEW005 BKN013 OVC027 71 69     93%   72 29.79   0    
Jul 12 00:15 S 6 3 Rain and Fog/Mist SCT006 BKN016 OVC070 71 69     93%   72 29.79   0    
Jul 12 00:12 S 5 2 Rain and Fog/Mist SCT006 BKN009 OVC024 71 69     93%   72 29.8   0    
Jul 12 00:03 SSE 5 1.75 Heavy Rain and Fog/Mist FEW006 SCT009 OVC016 71 69     93%   72 29.8   0    
Jul 12 00:01 S 5 2 Heavy Rain and Fog/Mist SCT009 BKN012 OVC019 71 69     93%   72 29.81   0    
Jul 11 23:53 S 3 10 Light Rain SCT009 OVC015 71 69     93%   72 29.81 29.8 0    
Jul 11 23:48 S 3 10 Light Rain BKN011 BKN015 OVC021 72 70     94%   73 29.81   0    
Jul 11 23:10 S 6 10 Light Rain BKN015 OVC019 72 69     91%   73 29.81   0    
Jul 11 22:53 SSE 6 10 Light Rain OVC013 72 69     91%   73 29.82 29.81 0 0  
Jul 11 22:35 S 6 9 Light Rain BKN013 OVC020 72 69     91%   73 29.83   0    
Jul 11 22:14 S 8 10 Light Rain BKN020 BKN026 OVC036 73 68     84%   74 29.83   0    
Jul 11 21:53 S 9 10 Light Rain SCT019 OVC035 74 67     79%   75 29.84 29.83 0    
Jul 11 21:43 S 5 10 Cloudy SCT019 BKN032 OVC044 74 67     79%   75 29.84        
Jul 11 21:19 S 6 10 Cloudy BKN022 BKN032 OVC055 74 65     74%   74 29.83        
Jul 11 20:53 S 6 10 Mostly Cloudy BKN060 BKN075 75 64     69%   75 29.83 29.83      
Jul 11 19:53 S 9 10 Mostly Cloudy SCT065 BKN090 76 63     64%   76 29.84 29.84      
Jul 11 18:53 S 11 10 Mostly Cloudy SCT070 BKN080 78 60     54%   78 29.84 29.83      
Jul 11 17:53 S 10 10 Mostly Cloudy BKN060 82 62     51%   83 29.83 29.82      
Jul 11 16:53 S 10 10 Partly Cloudy FEW046 FEW070 SCT110 83 65     55%   85 29.83 29.82      
Jul 11 15:53 S 16 10 Mostly Clear FEW050 FEW100 85 66     53%   87 29.85 29.84      
Jul 11 14:53 S 16 10 Clear CLR 85 66     53%   87 29.87 29.85      
Jul 11 13:53 SSW 15 10 Mostly Cloudy SCT040 BKN050 BKN070 86 67     53%   89 29.89 29.88 0   0
Jul 11 12:53 SE 7 10 Mostly Cloudy FEW042 FEW055 BKN100 82 71     69%   86 29.9 29.9      
Jul 11 11:53 S 6 10 Mostly Cloudy SCT012 BKN110 80 71     74%   84 29.92 29.92      
Jul 11 11:46 SSE 6 10 Mostly Cloudy BKN012 BKN110 79 71     77%   82 29.93        
Jul 11 11:00 SSE 8 10 Partly Cloudy FEW007 SCT048 76 70     82%   77 29.94        
Jul 11 10:53 7 9 Mostly Cloudy BKN004 BKN048 76 70     82%   77 29.95 29.94   0  
Jul 11 09:53 S 5 7 Mostly Cloudy BKN004 BKN049 71 68     90%   72 29.96 29.95 0    
Jul 11 09:43 S 3 7 Cloudy BKN005 OVC049 70 68     93%     29.96   0    
Jul 11 09:00 SW 5 7 Cloudy FEW003 BKN044 OVC060 67 65     93%     29.97   0    
Jul 11 08:53 WNW 6 2.5 Light Rain and Fog/Mist FEW003 BKN042 OVC065 67 65     93%     29.97 29.97 0    
Notice The following observation data may not be complete
Jul 11 08:42   2.5 Heavy Rain and Fog/Mist BKN042 BKN050 OVC065          %         0    
Jul 11 08:21 SSE 5 1.25 Heavy Rain and Fog/Mist SCT044 BKN055 OVC080 66 64     93%     29.98   0    
Jul 11 08:14 SSW 6 2 Rain SCT044 BKN075 OVC100 67 62     84%     29.99   0    
Jul 11 07:53 NNW 3 6 Light Rain BKN080 OVC100 67 62     84%     29.99 29.98 0   0
Jul 11 07:17 WNW 3 10 Mostly Cloudy SCT008 BKN090 BKN120 68 61     78%     29.98        
Jul 11 06:53 Calm 10 Mostly Clear FEW110 67 61     81%     29.98 29.97      
Jul 11 05:53 N 5 10 Clear CLR 63 60     90%     29.98 29.96      
Jul 11 04:53 Calm 10 Clear CLR 63 60     90%     29.97 29.96      
Jul 11 03:53 Calm 10 Mostly Cloudy FEW060 BKN070 63 61     93%     29.97 29.96      
Jul 11 02:53 Calm 10 Clear CLR 64 61     90%     29.97 29.96      
Jul 11 01:53 Calm 10 Clear CLR 65 62     90%     29.97 29.96      
Jul 11 00:53 Calm 10 Clear CLR 65 61     87%     29.98 29.97      
Jul 10 23:53 Calm 10 Clear CLR 66 62     87%     29.98 29.97      
Jul 10 22:53 Calm 10 Mostly Clear FEW070 69 62     78%     29.98 29.97      
Jul 10 21:53 Calm 10 Mostly Clear FEW070 70 61     73%     29.99 29.98      
Jul 10 20:53 Calm 10 Clear CLR 72 62     71%   72 29.98 29.97      
Jul 10 17:53 W 7 10 Clear CLR 89        %     29.97 29.96      
Jul 10 16:53 W 9 10 Clear CLR 91 53     28%   89 29.98 29.97      
Jul 10 15:53 Calm 10 Mostly Clear FEW065 89 58     35%   88 29.99 29.98      
Jul 10 14:53 SSE 3 10 Clear CLR 88 59     38%   87 29.99 29.98      
Jul 10 13:53 W 8 10 Clear CLR 89 58     35%   88 30 29.99      
Jul 10 12:53 S 7 10 Clear   87 56     35%   86 30.01 30.01      
Jul 10 11:53 Calm 10 Clear CLR 85 59     42%   85 30.03 30.03      
Jul 10 10:53 Calm 10 Clear CLR 82 60     47%   82 30.04 30.03      
Jul 10 09:53 Calm 10 Clear CLR 77 59     54%   77 30.05 30.05      
Jul 10 08:53 Calm 10 Clear CLR 73 58     59%   73 30.07 30.06      
Jul 10 07:53 Calm 10 Clear CLR 69 59     70%     30.06 30.06      
Jul 10 06:53 Calm 10 Clear CLR 64 58     81%     30.06 30.05      
Jul 10 05:53 Calm 10 Clear CLR 57 55     93%     30.05 30.04      
Jul 10 04:53 Calm 10 Clear CLR 57 55     93%     30.04 30.03      
Jul 10 03:53 Calm 10 Clear CLR 57 55     93%     30.03 30.03      
Jul 10 02:53 Calm 10 Clear CLR 59 56     90%     30.03 30.02      
Jul 10 01:53 Calm 10 Clear CLR 60 56     86%     30.03 30.03      
Jul 10 00:53 Calm 10 Clear CLR 61 57     87%     30.04 30.03      
Jul 09 23:53 Calm 10 Clear CLR 63 57     81%     30.04 30.03      
Jul 09 22:53 Calm 10 Clear CLR 65 57     76%     30.04 30.03      
Jul 09 21:53 ENE 3 10 Clear   68 57     68%     30.04 30.03      
Jul 09 20:53 WNW 3 10 Clear CLR 77 55     47%   77 30.01 30.01      
Jul 09 19:53 W 6 10 Clear CLR 81 54     39%   81 30 30      
Jul 09 18:53 WNW 9 10 Clear CLR 85 54     35%   83 29.99 29.99      
Jul 09 17:53 S 8 10 Partly Cloudy SCT075 84 57     40%   83 29.99 29.98      
Jul 09 17:31 S 7 10 Mostly Cloudy FEW002 BKN075 87 57     36%   86 29.99        
Jul 09 16:53 SE 6 10 Mostly Clear FEW075 87 55     34%   85 29.99 29.98      
Jul 09 15:53 6 10 Clear CLR 86 52     31%   84 30 29.99      
Jul 09 14:53 6 10 Clear CLR 87 51     29%   85 30 30      
Jul 09 13:53 E 9 10 Clear CLR 86 50     29%   84 30.01 30      
Jul 09 12:53 ENE 7 10 Clear CLR 84 49     30%   82 30.02 30.02      
Jul 09 12:28 ENE 7 10 Clear CLR 85 50     30%   83 30.03        
Jul 09 10:53 6 10 Clear CLR 82 51     34%   81 30.05 30.04      
Jul 09 09:53 Calm 10 Clear CLR 77 58     52%   77 30.05 30.04      
Jul 09 08:53 NNE 3 10 Clear CLR 71 57     61%   71 30.05 30.04      
Jul 09 07:53 3 10 Clear CLR 67 55     66%     30.04 30.04      
Jul 09 06:53 N 3 10 Clear CLR 61 54     78%     30.04 30.04      
Jul 09 05:53 N 5 10 Clear CLR 56 52     87%     30.03 30.03      
Jul 09 04:53 Calm 10 Clear CLR 55 53     93%     30.02 30.01      
Jul 09 03:53 N 3 10 Clear CLR 56 52     87%     30 29.99      
Jul 09 02:53 Calm 10 Clear CLR 57 55     93%     29.98 29.97      
Jul 09 01:53 Calm 10 Clear CLR 58 55     90%     29.99 29.98      
Jul 09 00:53 Calm 10 Clear CLR 59 57     93%     29.99 29.98      
Jul 08 23:53 Calm 10 Clear CLR 60 57     90%     29.98 29.98      
Jul 08 22:53 Calm 10 Clear CLR 62 59     90%     29.98 29.98      
Jul 08 21:53 Calm 10 Clear CLR 66 61     84%     29.98 29.97      
Jul 08 19:53 SSW 3 10 Clear CLR 79 59     50%   79 29.94 29.93      
Jul 08 17:53 S 6 10 Clear CLR 83 57     41%   82 29.92 29.91      
Jul 08 16:53 S 7 10 Clear CLR 83 55     38%   82 29.93 29.93      
Jul 08 16:39 S 6 10 Mostly Clear FEW002 83 54     37%   82 29.93        
Jul 08 15:53 Calm 10 Clear CLR 83 53     36%   82 29.94 29.93      
Jul 08 14:53 Calm 10 Clear CLR 82 51     34%   81 29.95 29.95      
Jul 08 13:53 5 10 Clear CLR 80 50     35%   79 29.98 29.97      
Jul 08 12:53 NE 6 10 Clear CLR 78 48     35%   77 30 29.99      
Jul 08 11:53 Calm 10 Clear CLR 76 49     39%   75 30.01 30      
Jul 08 10:53 NNE 6 10 Clear CLR 70 51     51%     30.02 30.02      
Jul 08 09:53 NNE 6 10 Clear CLR 69 52     54%     30.03 30.02      
Jul 08 08:53 N 8 10 Clear CLR 69 53     57%     30.02 30.01      
Jul 08 07:53 N 5 10 Clear CLR 66 53     63%     30.01 30      
Jul 08 06:53 Calm 10 Clear CLR 60 55     83%     30 29.99      
Jul 08 05:53 NNW 5 10 Clear CLR 58 53     84%     30 29.99      
Jul 08 04:53 N 7 10 Clear CLR 56 53     90%     29.98 29.97      
Jul 08 03:53 N 6 10 Clear CLR 58 54     87%     29.97 29.96      
Jul 08 02:53 N 6 10 Clear CLR 60 56     86%     29.98 29.98      
Jul 08 01:53 N 7 10 Clear CLR 61 57     87%     29.98 29.98      
Jul 08 00:53 N 5 10 Clear CLR 63 58     84%     29.97 29.96      
Jul 07 23:53 Calm 10 Clear CLR 63 59     87%     29.96 29.96      
Jul 07 22:53 Calm 10 Clear CLR 65 60     84%     29.96 29.95      
Jul 07 21:53 N 5 10 Mostly Clear FEW055 69 60     73%     29.95 29.94      
Jul 07 20:53 NNE 3 10 Mostly Clear FEW055 73 60     64%   73 29.93 29.93      
Jul 07 19:53 N 3 10 Clear   80 57     45%   80 29.91 29.91      
Jul 07 18:53 Calm 10 Clear CLR 82 58     44%   82 29.9 29.89      
Jul 07 17:53 NNE 6 10 Clear CLR 83 56     40%   82 29.89 29.88      
Jul 07 16:53 Calm 10 Clear CLR 84 56     38%   83 29.89 29.88      
Jul 07 15:53 ENE 7 10 Clear CLR 83 56     40%   82 29.91 29.9      
Jul 07 14:53 6 10 Clear CLR 83 56     40%   82 29.92 29.91      
Jul 07 13:53 6 10 Clear CLR 82 55     40%   81 29.94 29.93      
Jul 07 12:53 N 9 10 Mostly Clear FEW038 80 59     49%   81 29.95 29.94      
Jul 07 11:53 6 10 Clear   79 60     52%   79 29.96 29.95      
Jul 07 10:53 NNE 11 10 Clear CLR 77        %     29.96 29.95      
Jul 07 09:53 NNE 8 10 Clear CLR 75 57     54%   75 29.96 29.95      
Jul 07 08:53 NNE 14 10 Mostly Clear FEW060 73 57     57%   73 29.95 29.94      
Jul 07 07:53 N 9 10 Cloudy OVC055 69 58     68%     29.94 29.94      
Jul 07 06:53 N 9 10 Mostly Cloudy BKN055 68 60     76%     29.92 29.92      
Jul 07 05:53 NNE 9 10 Mostly Cloudy BKN080 69 61     75%     29.9 29.9      
Jul 07 04:53 N 11 10 Partly Cloudy FEW075 SCT090 70 66     87%     29.87 29.86      
Jul 07 03:53 Calm 10 Cloudy OVC080 71 69     93%   72 29.86 29.85      
Jul 07 02:53 N 6 10 Cloudy OVC080 72 69     91%   73 29.85 29.84      
Jul 07 01:53 N 5 10 Mostly Cloudy BKN080 72 70     93%   73 29.85 29.84     0
Jul 07 00:53 NNE 3 10 Mostly Clear FEW080 72 70     93%   73 29.86 29.84      
Jul 06 23:53 N 5 10 Clear CLR 73 70     90%   74 29.85 29.84 0    
Jul 06 22:53 N 3 10 Light Rain CLR 73 71     94%   74 29.86 29.85 0 0  
Jul 06 21:53 Calm 10 Mostly Clear FEW060 72 70     93%   73 29.86 29.85      
Jul 06 20:53 Calm 10 Partly Cloudy SCT049 73 70     90%   74 29.84 29.83 0    
Jul 06 19:53 Calm 9 Light Rain FEW005 SCT050 BKN110 73 71     94%   74 29.84 29.83 0   0
Jul 06 19:40 Calm 10 Light Rain FEW006 SCT055 BKN075 73 70     90%   74 29.84   0    
Jul 06 19:12 Calm 7 Light Rain FEW075 SCT090 OVC110 72 70     93%   73 29.84   0    
Jul 06 18:53 Calm 4 Rain and Fog/Mist OVC080 73 69     87%   74 29.85 29.84 0    
Jul 06 18:24 ENE 6 10 Clear   75 69     82%   76 29.83   0    
Jul 06 18:00 Calm 8 Clear   75 73     94%   77 29.83   0    
Jul 06 17:53 S 8 8 Clear   75 73     94%   77 29.82 29.81 0    
Jul 06 17:41 S 8 5 Rain and Fog/Mist SCT060 BKN075 OVC110 76 73     91%   77 29.81   0    
Jul 06 17:34 NW 11 4 Rain BKN060 OVC075 77 72     84%   78 29.82   0    
Jul 06 16:36 WNW 10 10 Thunderstorms FEW050 BKN070 BKN090 85 69     59%   89 29.77        
Jul 06 16:16   10 Mostly Cloudy SCT047 BKN065 BKN110 86 70     59%   91 29.76        
Jul 06 15:53 WSW 8 10 Partly Cloudy FEW050 SCT065 94 70     46%   100 29.77 29.75      
Jul 06 14:53 SW 11 10 Partly Cloudy SCT048 SCT055 SCT075 93 69     46%   98 29.79 29.77      
Jul 06 13:53 SSW 14 10 Partly Cloudy SCT045 92 70     49%   98 29.81 29.8      
Jul 06 12:53 S 8 10 Mostly Cloudy SCT038 BKN050 BKN065 89 70     53%   94 29.86 29.84      
Jul 06 11:53 S 11 10 Clear   90 70     52%   95 29.88 29.87      
Jul 06 09:53 SSW 9 10 Mostly Cloudy BKN026 BKN031 83 71     67%   88 29.93 29.92      
Jul 06 09:44 SSW 9 10 Mostly Cloudy BKN026 BKN031 84 71     65%   89 29.93        
Jul 06 08:53 S 8 10 Mostly Clear FEW020 82 72     72%   87 29.95 29.93      
Jul 06 07:53 S 7 10 Clear CLR 79 72     79%   82 29.96 29.95      
Jul 06 06:53 S 7 10 Clear CLR 75 71     88%   76 29.97 29.96      
Jul 06 05:53 SSW 6 10 Clear   74 70     87%   75 29.97 29.96      
Jul 06 05:04 S 5 10 Partly Cloudy SCT026 73 69     87%   74 29.97        
Jul 06 04:53 S 5 10 Mostly Cloudy BKN026 74 69     85%   75 29.97 29.96      
Jul 06 04:01 S 5 10 Mostly Cloudy BKN024 74 69     85%   75 29.99        
Jul 06 03:53 S 5 10 Partly Cloudy SCT021 SCT026 73 69     87%   74 29.99 29.98      
Jul 06 02:53 S 6 10 Cloudy OVC021 75 69     82%   76 30 29.98      
Jul 06 01:53 S 7 10 Cloudy OVC020 75 69     82%   76 30.01 29.99      
Jul 06 01:36 S 8 10 Mostly Cloudy BKN020 74 69     85%   75 30.01        
Jul 06 00:53 SSE 5 10 Partly Cloudy SCT021 74 69     85%   75 30.03 30.02      
Jul 05 23:53 S 7 10 Cloudy OVC020 76 69     79%   77 30.05 30.04      
Jul 05 22:53 S 6 10 Cloudy OVC020 76 69     79%   77 30.06 30.05      
Jul 05 22:15 S 8 10 Mostly Cloudy BKN022 76 69     79%   77 30.05        
Jul 05 21:53 S 7 10 Clear CLR 77 69     77%   78 30.05 30.04      
Jul 05 20:53 S 10 10 Clear CLR 79 68     69%   80 30.04 30.03      
Jul 05 19:53 S 10 10 Clear CLR 81 66     61%   83 30.05 30.04      
Jul 05 18:53 S 11 10 Clear CLR 84 62     48%   85 30.05 30.04      
Jul 05 17:53 S 13 10 Clear   88 58     36%   87 30.06 30.05      
Jul 05 16:53 S 13 10 Clear CLR 89 54     30%   87 30.06 30.05      
Jul 05 15:53 S 13 10 Clear CLR 89 59     36%   88 30.08 30.07      
Jul 05 14:53 S 9 10 Clear CLR 89 61     39%   89 30.1 30.09      
Jul 05 13:53 S 10 10 Clear CLR 89 59     36%   88 30.12 30.11      
Jul 05 12:53 S 11 10 Clear CLR 87 58     37%   86 30.14 30.13      
Jul 05 11:53 S 8 10 Clear CLR 86 61     43%   86 30.15 30.14      
Jul 05 10:53 S 10 10 Clear CLR 83 63     51%   84 30.15 30.14      
Jul 05 09:53 S 6 10 Clear CLR 80 64     58%   82 30.16 30.15      
Jul 05 08:53 3 10 Clear CLR 76 64     67%   76 30.16 30.15      
Jul 05 07:53 Calm 10 Clear CLR 72 63     73%   72 30.17 30.16      
May 14 07:53 S 8 10 Cloudy OVC007 51 49     92%     30.02 30.03      
May 14 06:53 S 3 10 Cloudy OVC008 51 49     92%     30.02 30.02      
May 14 05:12 S 5 10 Cloudy FEW007 BKN019 OVC050 50 49     96% 48   29.99        
May 12 04:53 N 8 10 Cloudy OVC085 51 34     52%     30.17 30.16      
May 12 02:53 NNE 8 10 Cloudy OVC110 51 36     56%     30.14 30.14      
Jun 12 01:53 SSE 6 10 Clear CLR 66 63     90%     29.96 29.95      
Jun 11 03:53 SSE 5 10 Clear CLR 64 60     87%     29.98 29.97      
Jun 10 00:53 Calm 10 Clear CLR 58 52     81%     29.86 29.86      
Jun 09 15:53 6 10 Clear CLR 77 49     37%   76 29.68 29.68      
Jun 09 12:53 NW 9 10 Clear CLR 75 52     45%   74 29.69 29.69      
Jun 08 19:53 S 7 10 Clear   63 47     56%     29.88 29.88      
Jun 08 03:15 Calm 4 Fog/Mist CLR 47 47     100%     30.02        
Jun 07 21:53 SSW 3 10 Clear CLR 56 54     93%     30.01 30.01 0    
Notice The following observation data may not be complete
Jun 07 20:53 Calm 10 Clear CLR   55      %     29.98 29.98 0    
Jun 06 10:19 N 13 10 Light Rain OVC012 50 49     96% 45   29.8   0    
Jun 06 05:53 NE 11 10 Cloudy OVC017 52 49     89%     29.78 29.78      
Jun 06 04:53 NNE 8 10 Cloudy OVC017 53 51     93%     29.77 29.77 0 0  
Jun 05 19:24 NE 5 1.75 Light Rain and Fog/Mist BKN006 BKN015 OVC023 56 56     100%     29.82   0    
Jun 05 18:49 NNE 6 2.5 Light Rain and Fog/Mist OVC013 55 55     100%     29.82   0